Galveston, TX

10:15 PM CDT on October 22, 2018 (GMT -0500)
Scholes International At Galveston

Weather History for KGLS - October, 2018

Change the Weather History Date:

Thursday, October 11, 2018

  Actual Average Record
Temperature  
Mean Temperature 76 °F 76 °F  
Max Temperature 81 °F 82 °F 88 °F (1980)
Min Temperature 70 °F 70 °F 55 °F (1990)
Degree Days  
Heating Degree Days 0 0  
Month to date heating degree days 0 0  
Since 1 July heating degree days 0 0  
Cooling Degree Days 11 11  
Month to date cooling degree days 192 133  
Year to date cooling degree days 3465 3026  
Growing Degree Days 26 (Base 50)    
Moisture  
Dew Point 64 °F    
Average Humidity 68    
Maximum Humidity 84    
Minimum Humidity 51    
Precipitation  
Precipitation T in 0.18 in 1.36 in (1970)
Month to date precipitation 1.26 2.00  
Year to date precipitation 45.33 39.21  
Snow  
Snow 0.00 in - 0.00 in (2002)
Month to date snowfall 0.0  
Since 1 July snowfall 0.0  
Since 1 September snowfall 0.0  
Snow Depth 0.00 in    
Sea Level Pressure  
Sea Level Pressure 30.01 in    
Wind  
Wind Speed 13 mph (NNE)    
Max Wind Speed 24 mph    
Max Gust Speed 29 mph    
Visibility 10 miles    
Events Rain    
T = Trace of Precipitation, MM = Missing Value Source: NWS Daily Summary

Daily Weather History Graph

Daily Weather History Graph

Search for Another Location

Airport or City:

Astronomy

Oct. 11, 2018 Rise Set
Actual Time 7:18 AM CDT 6:53 PM CDT
Civil Twilight 6:54 AM CDT 7:17 PM CDT
Nautical Twilight 6:26 AM CDT 7:44 PM CDT
Astronomical Twilight 5:59 AM CDT 8:12 PM CDT
Moon 9:42 AM CDT (10/11) 9:00 PM CDT (10/11)
Length of Visible Light 12h 22m
Length of Day
11h 35m
Waxing Crescent, 8% of the Moon is Illuminated
Oct 11
Waxing Crescent
Oct 16
First Quarter
Oct 24
Full
Oct 31
Last Quarter
Nov 7
New

Hourly Weather History & Observations

Time (CDT) Temp. Heat Index Dew Point Humidity Pressure Visibility Wind Dir Wind Speed Gust Speed Precip Events Conditions
12:52 AM 75.9 °F - 68.0 °F 76% 29.94 in 10.0 mi North 12.7 mph - N/A   Clear
1:52 AM 75.9 °F - 69.1 °F 79% 29.95 in 10.0 mi North 10.4 mph - N/A   Clear
2:52 AM 75.9 °F - 69.1 °F 79% 29.96 in 10.0 mi North 13.8 mph - N/A   Clear
3:52 AM 75.0 °F - 69.1 °F 82% 29.97 in 10.0 mi North 13.8 mph - N/A   Clear
4:52 AM 73.9 °F - 68.0 °F 82% 29.98 in 10.0 mi North 17.3 mph - N/A   Clear
5:52 AM 73.0 °F - 68.0 °F 84% 29.99 in 10.0 mi North 18.4 mph - N/A   Clear
6:52 AM 72.0 °F - 66.9 °F 84% 30.01 in 10.0 mi NNE 18.4 mph - 0.00 in Rain Light Rain
7:52 AM 70.0 °F - 64.0 °F 81% 30.03 in 10.0 mi NNE 19.6 mph 26.5 mph 0.00 in   Partly Cloudy
8:52 AM 71.1 °F - 62.1 °F 73% 30.05 in 10.0 mi NNE 19.6 mph - N/A   Clear
9:52 AM 73.0 °F - 62.1 °F 68% 30.07 in 10.0 mi NE 15.0 mph 24.2 mph N/A   Clear
10:52 AM 73.9 °F - 62.1 °F 66% 30.07 in 10.0 mi NNE 12.7 mph - N/A   Clear
11:52 AM 75.9 °F - 63.0 °F 64% 30.08 in 10.0 mi NNE 11.5 mph - N/A   Clear
12:52 PM 78.1 °F - 64.0 °F 62% 30.06 in 10.0 mi North 15.0 mph - N/A   Clear
1:52 PM 80.1 °F 81.1 °F 61.0 °F 52% 30.03 in 10.0 mi North 11.5 mph - N/A   Clear
2:52 PM 81.0 °F 81.9 °F 62.1 °F 52% 30.01 in 10.0 mi North 10.4 mph - N/A   Clear
3:52 PM 80.1 °F 81.5 °F 63.0 °F 56% 30.00 in 10.0 mi North 10.4 mph - N/A   Clear
4:52 PM 81.0 °F 82.2 °F 63.0 °F 54% 29.99 in 10.0 mi North 9.2 mph - N/A   Clear
5:52 PM 80.1 °F 81.2 °F 62.1 °F 54% 29.98 in 10.0 mi NNE 10.4 mph - N/A   Clear
6:52 PM 78.1 °F - 60.1 °F 54% 29.99 in 10.0 mi NE 9.2 mph - N/A   Clear
7:52 PM 77.0 °F - 61.0 °F 58% 30.01 in 10.0 mi NNE 9.2 mph - N/A   Clear
8:52 PM 75.9 °F - 62.1 °F 62% 30.02 in 10.0 mi NE 10.4 mph - N/A   Clear
9:52 PM 75.0 °F - 63.0 °F 66% 30.03 in 10.0 mi NE 11.5 mph - N/A   Clear
10:52 PM 75.0 °F - 63.0 °F 66% 30.03 in 10.0 mi NNE 12.7 mph - N/A   Clear
11:52 PM 73.0 °F - 63.0 °F 71% 30.02 in 10.0 mi NNE 10.4 mph - N/A   Clear